| time (UTC) | temp F | wind direction | speed MPH | gust MPH | rain 1hr in | rain 24hr in | rain mn in | humidity % | barometer mb |
| 20260901075028 | 83 | 193 | 5.0 | 12.0 | 0.00 | 0.00 | 0.00 | 37 | 1012.6 |
| 20260901074524 | 83 | 196 | 5.0 | 9.0 | 0.00 | 0.00 | 0.00 | 37 | 1012.5 |
| 20260901074028 | 83 | 190 | 4.0 | 9.0 | 0.00 | 0.00 | 0.00 | 38 | 1012.5 |
| 20260901073524 | 83 | 187 | 4.0 | 9.0 | 0.00 | 0.00 | 0.00 | 38 | 1012.5 |
| 20260901073035 | 83 | 150 | 4.0 | 8.0 | 0.00 | 0.00 | 0.00 | 38 | 1012.5 |
| 20260901072524 | 84 | 198 | 4.0 | 8.0 | 0.00 | 0.00 | 0.00 | 38 | 1012.6 |
| 20260901072024 | 84 | 193 | 4.0 | 7.0 | 0.00 | 0.00 | 0.00 | 38 | 1012.6 |
| 20260901071524 | 84 | 181 | 4.0 | 7.0 | 0.00 | 0.00 | 0.00 | 38 | 1012.6 |
| 20260901071022 | 84 | 179 | 4.0 | 8.0 | 0.00 | 0.00 | 0.00 | 37 | 1012.5 |
| 20260901070521 | 84 | 181 | 4.0 | 9.0 | 0.00 | 0.00 | 0.00 | 37 | 1012.6 |
| 20260901070121 | 84 | 200 | 3.0 | 9.0 | 0.00 | 0.00 | 0.00 | 37 | 1012.5 |
| 20260901065523 | 84 | 164 | 4.0 | 9.0 | 0.00 | 0.00 | 0.00 | 37 | 1012.5 |
| 20260901065021 | 84 | 177 | 4.0 | 9.0 | 0.00 | 0.00 | 0.00 | 37 | 1012.5 |
| 20260901064520 | 85 | 184 | 4.0 | 8.0 | 0.00 | 0.00 | 0.00 | 37 | 1012.6 |
| 20260901064019 | 85 | 180 | 3.0 | 9.0 | 0.00 | 0.00 | 0.00 | 37 | 1012.6 |
| 20260901063518 | 85 | 184 | 5.0 | 9.0 | 0.00 | 0.00 | 0.00 | 37 | 1012.6 |
| 20260901063023 | 85 | 160 | 4.0 | 10.0 | 0.00 | 0.00 | 0.00 | 37 | 1012.6 |
| 20260901062517 | 85 | 199 | 5.0 | 10.0 | 0.00 | 0.00 | 0.00 | 36 | 1012.6 |
| 20260901062017 | 85 | 201 | 6.0 | 11.0 | 0.00 | 0.00 | 0.00 | 36 | 1012.6 |
| 20260901061517 | 85 | 175 | 5.0 | 11.0 | 0.00 | 0.00 | 0.00 | 36 | 1012.5 |
| 20260901061017 | 85 | 195 | 5.0 | 11.0 | 0.00 | 0.00 | 0.00 | 36 | 1012.5 |
| 20260901060517 | 85 | 169 | 3.0 | 12.0 | 0.00 | 0.00 | 0.00 | 36 | 1012.6 |
| 20260901060115 | 85 | 183 | 7.0 | 13.0 | 0.00 | 0.00 | 0.00 | 36 | 1012.4 |
| 20260901055516 | 85 | 157 | 5.0 | 13.0 | 0.00 | 0.00 | 0.00 | 36 | 1012.4 |
| 20260901055020 | 85 | 179 | 5.0 | 11.0 | 0.00 | 0.00 | 0.00 | 37 | 1012.3 |
| 20260901054517 | 85 | 200 | 4.0 | 11.0 | 0.00 | 0.00 | 0.00 | 37 | 1012.4 |
| 20260901054016 | 85 | 164 | 5.0 | 11.0 | 0.00 | 0.00 | 0.00 | 37 | 1012.3 |
| 20260901053516 | 85 | 174 | 3.0 | 9.0 | 0.00 | 0.00 | 0.00 | 37 | 1012.3 |
| 20260901053016 | 85 | 191 | 4.0 | 9.0 | 0.00 | 0.00 | 0.00 | 37 | 1012.3 |
| 20260901052514 | 85 | 177 | 5.0 | 9.0 | 0.00 | 0.00 | 0.00 | 37 | 1012.2 |
| 20260901052015 | 85 | 176 | 4.0 | 8.0 | 0.00 | 0.00 | 0.00 | 37 | 1012.1 |
| 20260901051513 | 85 | 193 | 4.0 | 9.0 | 0.00 | 0.00 | 0.00 | 36 | 1012.1 |
| 20260901051013 | 86 | 154 | 4.0 | 9.0 | 0.00 | 0.00 | 0.00 | 36 | 1012.1 |
| 20260901050512 | 86 | 174 | 3.0 | 8.0 | 0.00 | 0.00 | 0.00 | 36 | 1012.2 |
| 20260901050111 | 86 | 189 | 3.0 | 6.0 | 0.00 | 0.00 | 0.00 | 36 | 1012.2 |
| 20260901045511 | 86 | 192 | 3.0 | 6.0 | 0.00 | 0.00 | 0.00 | 36 | 1012.2 |
| 20260901045010 | 86 | 181 | 3.0 | 6.0 | 0.00 | 0.00 | 0.00 | 36 | 1012.1 |
| 20260901044511 | 86 | 172 | 2.0 | 6.0 | 0.00 | 0.00 | 0.00 | 36 | 1012.1 |
| 20260901044010 | 86 | 177 | 3.0 | 5.0 | 0.00 | 0.00 | 0.00 | 35 | 1012.2 |
| 20260901043510 | 87 | 186 | 3.0 | 5.0 | 0.00 | 0.00 | 0.00 | 35 | 1012.2 |
| 20260901043010 | 87 | 186 | 3.0 | 6.0 | 0.00 | 0.00 | 0.00 | 35 | 1012.2 |
| 20260901042511 | 87 | 189 | 4.0 | 6.0 | 0.00 | 0.00 | 0.00 | 34 | 1012.1 |
| 20260901042009 | 87 | 180 | 3.0 | 8.0 | 0.00 | 0.00 | 0.00 | 34 | 1012.1 |
| 20260901041509 | 87 | 183 | 4.0 | 8.0 | 0.00 | 0.00 | 0.00 | 34 | 1012.1 |
| 20260901041009 | 88 | 189 | 4.0 | 8.0 | 0.00 | 0.00 | 0.00 | 34 | 1012.0 |
| 20260901040509 | 88 | 191 | 4.0 | 9.0 | 0.00 | 0.00 | 0.00 | 34 | 1012.0 |
| 20260901040139 | 88 | 195 | 5.0 | 9.0 | 0.00 | 0.00 | 0.00 | 33 | 1011.9 |
| 20260901035509 | 88 | 190 | 6.0 | 10.0 | 0.00 | 0.00 | 0.00 | 33 | 1011.8 |
| 20260901035007 | 88 | 183 | 3.0 | 9.0 | 0.00 | 0.00 | 0.00 | 33 | 1012.0 |
| 20260901034507 | 88 | 187 | 4.0 | 9.0 | 0.00 | 0.00 | 0.00 | 32 | 1011.8 |
| 20260901034008 | 89 | 194 | 4.0 | 11.0 | 0.00 | 0.00 | 0.00 | 32 | 1011.8 |
| 20260901033510 | 89 | 191 | 5.0 | 12.0 | 0.00 | 0.00 | 0.00 | 31 | 1011.8 |
| 20260901033007 | 89 | 187 | 6.0 | 12.0 | 0.00 | 0.00 | 0.00 | 31 | 1011.7 |
| 20260901032507 | 89 | 205 | 6.0 | 11.0 | 0.00 | 0.00 | 0.00 | 31 | 1011.7 |
| 20260901032007 | 89 | 190 | 6.0 | 12.0 | 0.00 | 0.00 | 0.00 | 31 | 1011.6 |
| 20260901031507 | 89 | 191 | 7.0 | 11.0 | 0.00 | 0.00 | 0.00 | 31 | 1011.4 |
| 20260901031008 | 90 | 189 | 5.0 | 13.0 | 0.00 | 0.00 | 0.00 | 30 | 1011.4 |
| 20260901030506 | 90 | 198 | 7.0 | 13.0 | 0.00 | 0.00 | 0.00 | 30 | 1011.3 |
| 20260901030112 | 90 | 191 | 7.0 | 11.0 | 0.00 | 0.00 | 0.00 | 30 | 1011.2 |
| 20260901025507 | 90 | 191 | 6.0 | 11.0 | 0.00 | 0.00 | 0.00 | 30 | 1011.1 |
| 20260901025007 | 90 | 162 | 7.0 | 11.0 | 0.00 | 0.00 | 0.00 | 29 | 1010.9 |
| 20260901024507 | 90 | 204 | 5.0 | 13.0 | 0.00 | 0.00 | 0.00 | 29 | 1010.8 |
| 20260901024007 | 90 | 202 | 6.0 | 12.0 | 0.00 | 0.00 | 0.00 | 28 | 1010.7 |
| 20260901023508 | 90 | 191 | 5.0 | 10.0 | 0.00 | 0.00 | 0.00 | 28 | 1010.4 |
| 20260901023006 | 90 | 196 | 5.0 | 10.0 | 0.00 | 0.00 | 0.00 | 28 | 1010.4 |
| 20260901022505 | 90 | 200 | 5.0 | 10.0 | 0.00 | 0.00 | 0.00 | 27 | 1010.2 |
| 20260901022006 | 90 | 192 | 5.0 | 10.0 | 0.00 | 0.00 | 0.00 | 26 | 1010.1 |
| 20260901021510 | 90 | 196 | 5.0 | 10.0 | 0.00 | 0.00 | 0.00 | 26 | 1009.9 |
| 20260901021005 | 90 | 191 | 5.0 | 9.0 | 0.00 | 0.00 | 0.00 | 25 | 1009.8 |
| 20260901020505 | 91 | 185 | 5.0 | 9.0 | 0.00 | 0.00 | 0.00 | 24 | 1009.8 |
| 20260901020006 | 91 | 196 | 6.0 | 12.0 | 0.00 | 0.00 | 0.00 | 24 | 1009.7 |
| 20260901015505 | 91 | 192 | 5.0 | 12.0 | 0.00 | 0.00 | 0.00 | 23 | 1009.6 |
| 20260901015007 | 91 | 193 | 6.0 | 10.0 | 0.00 | 0.00 | 0.00 | 23 | 1009.6 |
| 20260901014504 | 91 | 195 | 6.0 | 10.0 | 0.00 | 0.00 | 0.00 | 23 | 1009.5 |
| 20260901014005 | 92 | 160 | 4.0 | 9.0 | 0.00 | 0.00 | 0.00 | 23 | 1009.5 |
| 20260901013505 | 92 | 193 | 2.0 | 10.0 | 0.00 | 0.00 | 0.00 | 22 | 1009.4 |
| 20260901013005 | 92 | 196 | 4.0 | 10.0 | 0.00 | 0.00 | 0.00 | 22 | 1009.4 |
| 20260901012508 | 92 | 195 | 5.0 | 11.0 | 0.00 | 0.00 | 0.00 | 22 | 1009.4 |
| 20260901012009 | 93 | 196 | 6.0 | 11.0 | 0.00 | 0.00 | 0.00 | 22 | 1009.4 |
| 20260901011504 | 93 | 201 | 6.0 | 12.0 | 0.00 | 0.00 | 0.00 | 21 | 1009.3 |
| 20260901011004 | 93 | 195 | 6.0 | 12.0 | 0.00 | 0.00 | 0.00 | 22 | 1009.4 |
| 20260901010504 | 93 | 196 | 6.0 | 11.0 | 0.00 | 0.00 | 0.00 | 21 | 1009.4 |
| 20260901010116 | 94 | 196 | 8.0 | 12.0 | 0.00 | 0.00 | 0.00 | 21 | 1009.3 |
| 20260901005507 | 94 | 196 | 7.0 | 12.0 | 0.00 | 0.00 | 0.00 | 21 | 1009.3 |
| 20260901005006 | 94 | 203 | 6.0 | 12.0 | 0.00 | 0.00 | 0.00 | 21 | 1009.2 |
| 20260901004504 | 95 | 186 | 6.0 | 13.0 | 0.00 | 0.00 | 0.00 | 21 | 1009.2 |
| 20260901004003 | 95 | 195 | 8.0 | 15.0 | 0.00 | 0.00 | 0.00 | 20 | 1009.2 |
| 20260901003503 | 95 | 169 | 9.0 | 14.0 | 0.00 | 0.00 | 0.00 | 20 | 1009.3 |
| 20260901003008 | 95 | 183 | 7.0 | 12.0 | 0.00 | 0.00 | 0.00 | 20 | 1009.2 |
| 20260901002503 | 95 | 186 | 6.0 | 14.0 | 0.00 | 0.00 | 0.00 | 20 | 1009.3 |
| 20260901002005 | 96 | 244 | 6.0 | 16.0 | 0.00 | 0.00 | 0.00 | 20 | 1009.2 |
| 20260901001502 | 96 | 203 | 10.0 | 15.0 | 0.00 | 0.00 | 0.00 | 20 | 1009.2 |
| 20260901001002 | 96 | 198 | 7.0 | 15.0 | 0.00 | 0.00 | 0.00 | 19 | 1009.2 |
| 20260901000505 | 96 | 201 | 9.0 | 13.0 | 0.00 | 0.00 | 0.00 | 19 | 1009.2 |
| 20260901000104 | 96 | 191 | 8.0 | 14.0 | 0.00 | 0.00 | 0.00 | 19 | 1009.2 |
| 20260831235502 | 96 | 202 | 8.0 | 14.0 | 0.00 | 0.00 | 0.00 | 19 | 1009.2 |
| 20260831235002 | 96 | 142 | 4.0 | 12.0 | 0.00 | 0.00 | 0.00 | 18 | 1009.2 |
| 20260831234502 | 96 | 194 | 7.0 | 16.0 | 0.00 | 0.00 | 0.00 | 18 | 1009.0 |
| 20260831234002 | 96 | 207 | 7.0 | 16.0 | 0.00 | 0.00 | 0.00 | 18 | 1009.1 |
| 20260831233502 | 97 | 166 | 7.0 | 15.0 | 0.00 | 0.00 | 0.00 | 18 | 1009.0 |
| 20260831233002 | 97 | 200 | 6.0 | 13.0 | 0.00 | 0.00 | 0.00 | 18 | 1009.0 |
| 20260831232501 | 97 | 199 | 6.0 | 13.0 | 0.00 | 0.00 | 0.00 | 19 | 1009.0 |
| 20260831232001 | 97 | 195 | 8.0 | 17.0 | 0.00 | 0.00 | 0.00 | 19 | 1009.1 |
| 20260831231600 | 97 | 171 | 7.0 | 17.0 | 0.00 | 0.00 | 0.00 | 20 | 1009.0 |
| 20260831231101 | 97 | 212 | 7.0 | 15.0 | 0.00 | 0.00 | 0.00 | 21 | 1008.9 |
| 20260831230602 | 96 | 162 | 4.0 | 13.0 | 0.00 | 0.00 | 0.00 | 21 | 1009.0 |
| 20260831230112 | 97 | 212 | 11.0 | 18.0 | 0.00 | 0.00 | 0.00 | 21 | 1009.2 |
| 20260831225100 | 97 | 166 | 9.0 | 15.0 | 0.00 | 0.00 | 0.00 | 21 | 1009.1 |
| 20260831224558 | 97 | 189 | 6.0 | 13.0 | 0.00 | 0.00 | 0.00 | 21 | 1009.2 |
| 20260831224058 | 97 | 150 | 7.0 | 14.0 | 0.00 | 0.00 | 0.00 | 20 | 1009.2 |
| 20260831223557 | 97 | 145 | 5.0 | 14.0 | 0.00 | 0.00 | 0.00 | 21 | 1009.2 |
| 20260831223108 | 97 | 157 | 4.0 | 11.0 | 0.00 | 0.00 | 0.00 | 21 | 1009.2 |
| 20260831222557 | 97 | 204 | 6.0 | 12.0 | 0.00 | 0.00 | 0.00 | 22 | 1009.2 |
| 20260831222055 | 96 | 206 | 7.0 | 14.0 | 0.00 | 0.00 | 0.00 | 22 | 1009.2 |
| 20260831221558 | 96 | 158 | 8.0 | 14.0 | 0.00 | 0.00 | 0.00 | 21 | 1009.3 |
| 20260831221054 | 96 | 202 | 5.0 | 12.0 | 0.00 | 0.00 | 0.00 | 22 | 1009.3 |
| 20260831220554 | 96 | 191 | 6.0 | 11.0 | 0.00 | 0.00 | 0.00 | 22 | 1009.3 |
| 20260831220053 | 96 | 182 | 9.0 | 14.0 | 0.00 | 0.00 | 0.00 | 23 | 1009.3 |
| 20260831215054 | 96 | 87 | 4.0 | 11.0 | 0.00 | 0.00 | 0.00 | 23 | 1009.4 |
| 20260831214604 | 96 | 149 | 5.0 | 12.0 | 0.00 | 0.00 | 0.00 | 23 | 1009.6 |
| 20260831214053 | 96 | 181 | 7.0 | 12.0 | 0.00 | 0.00 | 0.00 | 22 | 1009.8 |
| 20260831213552 | 96 | 146 | 5.0 | 12.0 | 0.00 | 0.00 | 0.00 | 23 | 1009.8 |
| 20260831213051 | 96 | 202 | 9.0 | 15.0 | 0.00 | 0.00 | 0.00 | 23 | 1009.9 |
| 20260831212550 | 97 | 200 | 8.0 | 15.0 | 0.00 | 0.00 | 0.00 | 22 | 1010.0 |
| 20260831212049 | 96 | 209 | 7.0 | 15.0 | 0.00 | 0.00 | 0.00 | 23 | 1010.1 |
| 20260831211550 | 96 | 193 | 9.0 | 15.0 | 0.00 | 0.00 | 0.00 | 23 | 1010.0 |
| 20260831211049 | 95 | 244 | 6.0 | 12.0 | 0.00 | 0.00 | 0.00 | 24 | 1010.0 |
| 20260831210550 | 95 | 217 | 5.0 | 14.0 | 0.00 | 0.00 | 0.00 | 24 | 1010.1 |
| 20260831210047 | 95 | 192 | 4.0 | 15.0 | 0.00 | 0.00 | 0.00 | 24 | 1010.4 |
| 20260831205046 | 95 | 192 | 9.0 | 15.0 | 0.00 | 0.00 | 0.00 | 24 | 1010.4 |
| 20260831204545 | 95 | 187 | 6.0 | 16.0 | 0.00 | 0.00 | 0.00 | 24 | 1010.6 |
| 20260831204045 | 96 | 187 | 10.0 | 16.0 | 0.00 | 0.00 | 0.00 | 24 | 1010.6 |
| 20260831203545 | 96 | 193 | 8.0 | 15.0 | 0.00 | 0.00 | 0.00 | 24 | 1010.6 |
| 20260831203046 | 96 | 158 | 9.0 | 14.0 | 0.00 | 0.00 | 0.00 | 24 | 1010.8 |
| 20260831202544 | 95 | 159 | 8.0 | 15.0 | 0.00 | 0.00 | 0.00 | 25 | 1010.9 |
| 20260831202042 | 96 | 200 | 10.0 | 17.0 | 0.00 | 0.00 | 0.00 | 26 | 1011.0 |
| 20260831201542 | 95 | 195 | 7.0 | 17.0 | 0.00 | 0.00 | 0.00 | 25 | 1011.1 |
| 20260831201041 | 95 | 186 | 7.0 | 15.0 | 0.00 | 0.00 | 0.00 | 25 | 1011.1 |
| 20260831200540 | 95 | 190 | 7.0 | 13.0 | 0.00 | 0.00 | 0.00 | 25 | 1011.2 |
| 20260831200043 | 95 | 177 | 8.0 | 15.0 | 0.00 | 0.00 | 0.00 | 26 | 1011.3 |
| 20260831195041 | 95 | 193 | 6.0 | 16.0 | 0.00 | 0.00 | 0.00 | 26 | 1011.3 |
| 20260831194557 | 95 | 222 | 9.0 | 16.0 | 0.00 | 0.00 | 0.00 | 25 | 1011.4 |
| 20260831194039 | 95 | 216 | 7.0 | 15.0 | 0.00 | 0.00 | 0.00 | 25 | 1011.4 |
| 20260831193539 | 95 | 189 | 10.0 | 15.0 | 0.00 | 0.00 | 0.00 | 25 | 1011.5 |
| 20260831193040 | 95 | 174 | 10.0 | 14.0 | 0.00 | 0.00 | 0.00 | 26 | 1011.4 |
| 20260831192539 | 94 | 166 | 7.0 | 22.0 | 0.00 | 0.00 | 0.00 | 27 | 1011.4 |
| 20260831192038 | 94 | 210 | 11.0 | 22.0 | 0.00 | 0.00 | 0.00 | 27 | 1011.4 |
| 20260831191538 | 95 | 205 | 10.0 | 15.0 | 0.00 | 0.00 | 0.00 | 26 | 1011.5 |
| 20260831191043 | 95 | 143 | 7.0 | 16.0 | 0.00 | 0.00 | 0.00 | 27 | 1011.7 |
| 20260831190536 | 94 | 196 | 9.0 | 16.0 | 0.00 | 0.00 | 0.00 | 28 | 1011.7 |
| 20260831190035 | 94 | 184 | 12.0 | 18.0 | 0.00 | 0.00 | 0.00 | 29 | 1011.7 |
| 20260831185033 | 93 | 200 | 10.0 | 17.0 | 0.00 | 0.00 | 0.00 | 29 | 1011.7 |
| 20260831184532 | 93 | 219 | 9.0 | 19.0 | 0.00 | 0.00 | 0.00 | 27 | 1011.8 |
| 20260831184032 | 93 | 205 | 11.0 | 18.0 | 0.00 | 0.00 | 0.00 | 29 | 1011.8 |
| 20260831183531 | 93 | 182 | 11.0 | 18.0 | 0.00 | 0.00 | 0.00 | 29 | 1011.9 |
| 20260831183034 | 93 | 122 | 7.0 | 18.0 | 0.00 | 0.00 | 0.00 | 30 | 1012.0 |
| 20260831182530 | 93 | 156 | 12.0 | 18.0 | 0.00 | 0.00 | 0.00 | 30 | 1012.1 |
| 20260831182028 | 92 | 200 | 11.0 | 18.0 | 0.00 | 0.00 | 0.00 | 32 | 1012.2 |
| 20260831181527 | 92 | 166 | 11.0 | 17.0 | 0.00 | 0.00 | 0.00 | 32 | 1012.2 |
| 20260831181026 | 92 | 187 | 10.0 | 16.0 | 0.00 | 0.00 | 0.00 | 34 | 1012.2 |
| 20260831180525 | 91 | 214 | 6.0 | 19.0 | 0.00 | 0.00 | 0.00 | 36 | 1012.4 |
| 20260831180025 | 91 | 189 | 7.0 | 18.0 | 0.00 | 0.00 | 0.00 | 35 | 1012.4 |
| 20260831175023 | 91 | 243 | 10.0 | 19.0 | 0.00 | 0.00 | 0.00 | 35 | 1012.5 |
| 20260831174522 | 91 | 206 | 11.0 | 19.0 | 0.00 | 0.00 | 0.00 | 35 | 1012.5 |
| 20260831174022 | 90 | 204 | 12.0 | 18.0 | 0.00 | 0.00 | 0.00 | 37 | 1012.7 |
| 20260831173525 | 90 | 165 | 8.0 | 18.0 | 0.00 | 0.00 | 0.00 | 38 | 1012.7 |
| 20260831173021 | 90 | 205 | 9.0 | 18.0 | 0.00 | 0.00 | 0.00 | 38 | 1012.7 |
| 20260831172523 | 90 | 189 | 8.0 | 18.0 | 0.00 | 0.00 | 0.00 | 39 | 1012.7 |
| 20260831172022 | 89 | 177 | 11.0 | 18.0 | 0.00 | 0.00 | 0.00 | 39 | 1012.8 |
| 20260831171519 | 89 | 198 | 9.0 | 15.0 | 0.00 | 0.00 | 0.00 | 40 | 1012.8 |
| 20260831171017 | 89 | 206 | 9.0 | 17.0 | 0.00 | 0.00 | 0.00 | 41 | 1012.8 |
| 20260831170517 | 89 | 196 | 11.0 | 17.0 | 0.00 | 0.00 | 0.00 | 41 | 1012.9 |
| 20260831170033 | 88 | 162 | 9.0 | 20.0 | 0.00 | 0.00 | 0.00 | 43 | 1012.9 |
| 20260831165117 | 88 | 148 | 8.0 | 14.0 | 0.00 | 0.00 | 0.00 | 43 | 1013.1 |
| 20260831164521 | 88 | 189 | 10.0 | 15.0 | 0.00 | 0.00 | 0.00 | 43 | 1013.1 |
| 20260831164019 | 87 | 205 | 8.0 | 16.0 | 0.00 | 0.00 | 0.00 | 44 | 1013.2 |
| 20260831163514 | 87 | 200 | 9.0 | 16.0 | 0.00 | 0.00 | 0.00 | 44 | 1013.1 |
| 20260831163016 | 86 | 187 | 9.0 | 15.0 | 0.00 | 0.00 | 0.00 | 45 | 1013.1 |
| 20260831162513 | 86 | 181 | 6.0 | 14.0 | 0.00 | 0.00 | 0.00 | 46 | 1013.0 |
| 20260831162013 | 86 | 156 | 9.0 | 15.0 | 0.00 | 0.00 | 0.00 | 46 | 1013.1 |
| 20260831161510 | 85 | 205 | 8.0 | 15.0 | 0.00 | 0.00 | 0.00 | 47 | 1013.2 |
| 20260831161010 | 85 | 206 | 9.0 | 14.0 | 0.00 | 0.00 | 0.00 | 47 | 1013.1 |
| 20260831160510 | 85 | 203 | 7.0 | 15.0 | 0.00 | 0.00 | 0.00 | 48 | 1013.1 |
| 20260831160012 | 84 | 174 | 7.0 | 14.0 | 0.00 | 0.00 | 0.00 | 49 | 1013.2 |
| 20260831155008 | 84 | 149 | 7.0 | 16.0 | 0.00 | 0.00 | 0.00 | 49 | 1013.1 |
| 20260831154518 | 84 | 212 | 10.0 | 16.0 | 0.00 | 0.00 | 0.00 | 50 | 1013.1 |
| 20260831154005 | 83 | 173 | 6.0 | 14.0 | 0.00 | 0.00 | 0.00 | 50 | 1013.1 |
| 20260831153504 | 83 | 196 | 8.0 | 14.0 | 0.00 | 0.00 | 0.00 | 51 | 1013.3 |
| 20260831153003 | 82 | 196 | 8.0 | 14.0 | 0.00 | 0.00 | 0.00 | 51 | 1013.3 |
| 20260831152503 | 82 | 190 | 9.0 | 14.0 | 0.00 | 0.00 | 0.00 | 51 | 1013.2 |
| 20260831152005 | 82 | 189 | 8.0 | 14.0 | 0.00 | 0.00 | 0.00 | 52 | 1013.3 |
| 20260831151504 | 82 | 190 | 9.0 | 14.0 | 0.00 | 0.00 | 0.00 | 52 | 1013.3 |
| 20260831151003 | 82 | 177 | 7.0 | 14.0 | 0.00 | 0.00 | 0.00 | 53 | 1013.3 |
| 20260831150503 | 82 | 191 | 9.0 | 14.0 | 0.00 | 0.00 | 0.00 | 53 | 1013.3 |
| 20260831150003 | 81 | 196 | 10.0 | 15.0 | 0.00 | 0.00 | 0.00 | 54 | 1013.2 |
| 20260831145003 | 81 | 199 | 10.0 | 14.0 | 0.00 | 0.00 | 0.00 | 54 | 1013.3 |
| 20260831144604 | 81 | 151 | 7.0 | 12.0 | 0.00 | 0.00 | 0.00 | 54 | 1013.1 |
| 20260831144004 | 80 | 176 | 7.0 | 13.0 | 0.00 | 0.00 | 0.00 | 55 | 1013.3 |
| 20260831143502 | 80 | 200 | 6.0 | 14.0 | 0.00 | 0.00 | 0.00 | 56 | 1013.3 |
| 20260831143002 | 80 | 213 | 8.0 | 14.0 | 0.00 | 0.00 | 0.00 | 56 | 1013.4 |
| 20260831142502 | 80 | 211 | 7.0 | 16.0 | 0.00 | 0.00 | 0.00 | 56 | 1013.3 |
| 20260831142000 | 79 | 203 | 7.0 | 16.0 | 0.00 | 0.00 | 0.00 | 57 | 1013.2 |
| 20260831141501 | 79 | 166 | 7.0 | 15.0 | 0.00 | 0.00 | 0.00 | 57 | 1013.1 |
| 20260831141000 | 79 | 189 | 9.0 | 15.0 | 0.00 | 0.00 | 0.00 | 57 | 1013.2 |
| 20260831140600 | 79 | 146 | 7.0 | 14.0 | 0.00 | 0.00 | 0.00 | 58 | 1013.1 |
| 20260831140100 | 79 | 193 | 6.0 | 14.0 | 0.00 | 0.00 | 0.00 | 58 | 1013.1 |
| 20260831135000 | 78 | 180 | 10.0 | 15.0 | 0.00 | 0.00 | 0.00 | 58 | 1013.0 |
| 20260831134501 | 78 | 201 | 9.0 | 14.0 | 0.00 | 0.00 | 0.00 | 59 | 1013.1 |
| 20260831134100 | 78 | 189 | 7.0 | 12.0 | 0.00 | 0.00 | 0.00 | 59 | 1013.2 |
| 20260831133559 | 78 | 193 | 7.0 | 14.0 | 0.00 | 0.00 | 0.00 | 59 | 1013.0 |
| 20260831133159 | 78 | 201 | 8.0 | 14.0 | 0.00 | 0.00 | 0.00 | 59 | 1013.0 |
| 20260831132558 | 78 | 163 | 8.0 | 14.0 | 0.00 | 0.00 | 0.00 | 59 | 1012.9 |
| 20260831132058 | 78 | 191 | 7.0 | 15.0 | 0.00 | 0.00 | 0.00 | 59 | 1012.9 |
| 20260831131559 | 78 | 161 | 7.0 | 15.0 | 0.00 | 0.00 | 0.00 | 59 | 1012.9 |
| 20260831131057 | 77 | 181 | 6.0 | 14.0 | 0.00 | 0.00 | 0.00 | 60 | 1012.7 |
| 20260831130555 | 77 | 193 | 8.0 | 14.0 | 0.00 | 0.00 | 0.00 | 60 | 1012.7 |
| 20260831130100 | 77 | 195 | 6.0 | 13.0 | 0.00 | 0.00 | 0.00 | 60 | 1012.7 |
| 20260831125051 | 77 | 154 | 6.0 | 10.0 | 0.00 | 0.00 | 0.00 | 60 | 1012.7 |
| 20260831124558 | 77 | 180 | 5.0 | 10.0 | 0.00 | 0.00 | 0.00 | 60 | 1012.6 |
| 20260831124049 | 77 | 168 | 5.0 | 9.0 | 0.00 | 0.00 | 0.00 | 60 | 1012.6 |
| 20260831123547 | 77 | 180 | 4.0 | 9.0 | 0.00 | 0.00 | 0.00 | 60 | 1012.5 |
| 20260831123047 | 77 | 160 | 4.0 | 8.0 | 0.00 | 0.00 | 0.00 | 59 | 1012.5 |
| 20260831122550 | 77 | 122 | 3.0 | 6.0 | 0.00 | 0.00 | 0.00 | 59 | 1012.5 |
| 20260831122046 | 77 | 182 | 1.0 | 5.0 | 0.00 | 0.00 | 0.00 | 59 | 1012.4 |
| 20260831121546 | 77 | 182 | 2.0 | 8.0 | 0.00 | 0.00 | 0.00 | 59 | 1012.4 |
| 20260831121045 | 78 | 184 | 3.0 | 9.0 | 0.00 | 0.00 | 0.00 | 59 | 1012.2 |
| 20260831120544 | 78 | 175 | 4.0 | 9.0 | 0.00 | 0.00 | 0.00 | 59 | 1012.2 |
| 20260831120044 | 78 | 196 | 3.0 | 9.0 | 0.00 | 0.00 | 0.00 | 58 | 1012.1 |
| 20260831115043 | 78 | 163 | 4.0 | 8.0 | 0.00 | 0.00 | 0.00 | 58 | 1012.2 |
| 20260831114542 | 78 | 181 | 4.0 | 11.0 | 0.00 | 0.00 | 0.00 | 58 | 1012.1 |
| 20260831114042 | 78 | 190 | 4.0 | 11.0 | 0.00 | 0.00 | 0.00 | 57 | 1012.2 |
| 20260831113539 | 78 | 177 | 4.0 | 9.0 | 0.00 | 0.00 | 0.00 | 57 | 1012.1 |
| 20260831113038 | 78 | 172 | 4.0 | 11.0 | 0.00 | 0.00 | 0.00 | 57 | 1012.3 |
| 20260831112537 | 78 | 202 | 6.0 | 11.0 | 0.00 | 0.00 | 0.00 | 57 | 1012.3 |
| 20260831112043 | 78 | 165 | 4.0 | 11.0 | 0.00 | 0.00 | 0.00 | 56 | 1012.1 |
| 20260831111539 | 79 | 175 | 6.0 | 12.0 | 0.00 | 0.00 | 0.00 | 56 | 1012.2 |
| 20260831111035 | 79 | 151 | 6.0 | 11.0 | 0.00 | 0.00 | 0.00 | 56 | 1012.1 |
| 20260831110535 | 79 | 194 | 7.0 | 11.0 | 0.00 | 0.00 | 0.00 | 56 | 1012.2 |
| 20260831110034 | 79 | 199 | 6.0 | 14.0 | 0.00 | 0.00 | 0.00 | 55 | 1012.2 |
| 20260831105034 | 79 | 193 | 6.0 | 14.0 | 0.00 | 0.00 | 0.00 | 55 | 1012.0 |
| 20260831104537 | 79 | 210 | 8.0 | 12.0 | 0.00 | 0.00 | 0.00 | 54 | 1011.9 |
| 20260831104032 | 79 | 189 | 4.0 | 11.0 | 0.00 | 0.00 | 0.00 | 54 | 1011.9 |
| 20260831103534 | 79 | 191 | 5.0 | 12.0 | 0.00 | 0.00 | 0.00 | 53 | 1012.0 |
| 20260831103032 | 80 | 195 | 5.0 | 12.0 | 0.00 | 0.00 | 0.00 | 53 | 1012.1 |
| 20260831102533 | 80 | 199 | 5.0 | 12.0 | 0.00 | 0.00 | 0.00 | 53 | 1012.0 |
| 20260831102033 | 80 | 181 | 7.0 | 18.0 | 0.00 | 0.00 | 0.00 | 52 | 1012.0 |
| 20260831101530 | 80 | 210 | 10.0 | 18.0 | 0.00 | 0.00 | 0.00 | 52 | 1012.0 |
| 20260831101029 | 80 | 192 | 6.0 | 13.0 | 0.00 | 0.00 | 0.00 | 51 | 1012.0 |
| 20260831100529 | 80 | 197 | 8.0 | 13.0 | 0.00 | 0.00 | 0.00 | 51 | 1012.0 |
| 20260831100029 | 80 | 187 | 7.0 | 11.0 | 0.00 | 0.00 | 0.00 | 50 | 1012.0 |
| 20260831095027 | 80 | 206 | 8.0 | 15.0 | 0.00 | 0.00 | 0.00 | 49 | 1012.0 |
| 20260831094532 | 80 | 189 | 6.0 | 13.0 | 0.00 | 0.00 | 0.00 | 48 | 1011.9 |
| 20260831094027 | 80 | 191 | 6.0 | 11.0 | 0.00 | 0.00 | 0.00 | 48 | 1012.0 |
| 20260831093526 | 81 | 189 | 5.0 | 11.0 | 0.00 | 0.00 | 0.00 | 47 | 1011.9 |
| 20260831093031 | 81 | 185 | 6.0 | 11.0 | 0.00 | 0.00 | 0.00 | 47 | 1011.9 |
| 20260831092526 | 81 | 191 | 6.0 | 11.0 | 0.00 | 0.00 | 0.00 | 47 | 1011.9 |
| 20260831092027 | 81 | 173 | 5.0 | 10.0 | 0.00 | 0.00 | 0.00 | 46 | 1011.9 |
| 20260831091524 | 81 | 172 | 4.0 | 13.0 | 0.00 | 0.00 | 0.00 | 46 | 1011.9 |
| 20260831091024 | 81 | 153 | 6.0 | 17.0 | 0.00 | 0.00 | 0.00 | 46 | 1011.8 |
| 20260831090524 | 81 | 178 | 7.0 | 17.0 | 0.00 | 0.00 | 0.00 | 45 | 1011.8 |
| 20260831090023 | 81 | 175 | 7.0 | 12.0 | 0.00 | 0.00 | 0.00 | 44 | 1011.9 |
| 20260831085023 | 81 | 191 | 5.0 | 10.0 | 0.00 | 0.00 | 0.00 | 43 | 1011.9 |
| 20260831084534 | 81 | 188 | 6.0 | 12.0 | 0.00 | 0.00 | 0.00 | 43 | 1011.9 |
| 20260831084021 | 82 | 178 | 5.0 | 12.0 | 0.00 | 0.00 | 0.00 | 42 | 1011.9 |
| 20260831083521 | 82 | 191 | 5.0 | 11.0 | 0.00 | 0.00 | 0.00 | 42 | 1012.0 |
| 20260831083036 | 82 | 195 | 5.0 | 11.0 | 0.00 | 0.00 | 0.00 | 42 | 1012.0 |
| 20260831082521 | 82 | 187 | 7.0 | 11.0 | 0.00 | 0.00 | 0.00 | 41 | 1011.9 |
| 20260831082020 | 82 | 198 | 5.0 | 11.0 | 0.00 | 0.00 | 0.00 | 41 | 1011.9 |
| 20260831081522 | 82 | 190 | 6.0 | 11.0 | 0.00 | 0.00 | 0.00 | 41 | 1011.8 |
| 20260831081024 | 82 | 196 | 5.0 | 11.0 | 0.00 | 0.00 | 0.00 | 41 | 1011.8 |
| 20260831080521 | 82 | 182 | 5.0 | 10.0 | 0.00 | 0.00 | 0.00 | 41 | 1011.7 |
| 20260831080027 | 82 | 189 | 5.0 | 9.0 | 0.00 | 0.00 | 0.00 | 41 | 1011.8 |